Presure
102 99 105 99 94 89 94 95 90 88 93 110 105 94 93 94 95 91 90 98 91 87 90 89 90 81 167 168 164 87 94 167 89
101 97 100 100 99 100 104 104 103 100 101 101 99 94 91 88 142 98 135 92 96 80 97 166 85 83 89 90 136 111 202 93 88
100 96 97 95 93 91 92 106 99 98 116 97 98 100 99 98 99 97 98 99 101 103 168 87 202 83 142 195 82 103 95 160 203
134 103 102 98 102 97 99 145 112 109 134 103 94 101 102 102 157 92 105 87 107 181 188 202 129 171 169 98 117 120 116 112 188
151 149 102 153 132 140 103 93 151 95 133 100 103 90 89 170 94 94 104 113 174 130 192 199 193 194 103 96 92 201 197 94 101
146 143 109 95 138 93 115 97 108 161 147 95 133 98 94 102 96 78 95 149 154 175 168 88 83 84 85 88 89 89 79 96 91
102 119 102 103 105 108 162 157 125 104 145 101 114 156 143 179 177 142 153 149 172 78 85 90 154 97 96 91 77 76 135 174 178
136 141 148 140 111 122 114 155 138 87 157 112 140 85 65 175 172 173 187 190 83 94 108 97 96 96 176 160 157 175 185 212 237
137 136 154 107 114 98 158 173 163 163 178 118 175 191 194 190 181 132 87 92 112 102 115 114 192 186 175 170 188 199 234 234 287
141 136 182 169 192 178 121 165 183 176 179 200 190 197 195 190 144 119 95 191 99 186 191 182 173 163 163 186 233 229 323 302 292
95 134 136 109 155 175 112 174 174 198 197 206 181 105 159 84 95 97 134 157 122 189 174 171 171 163 208 220 264 298 285 281 242
136 133 190 196 177 140 196 193 195 194 161 94 90 90 87 104 96 146 109 179 188 183 175 163 191 221 273 270 307 201 275 153 165
194 189 189 193 192 192 117 203 77 166 77 90 89 88 97 116 152 110 165 188 179 169 169 183 208 218 253 238 168 278 180 250 248
201 163 196 199 134 176 201 125 137 199 89 85 91 97 177 94 181 175 186 160 170 173 194 205 225 270 196 244 211 267 199 248 239
205 178 204 197 166 176 118 83 90 95 121 101 97 185 97 182 179 177 179 165 168 192 199 223 276 229 168 252 264 256 255 250 238
84 79 88 86 76 79 84 185 102 99 98 192 182 177 181 175 179 182 160 165 170 127 215 280 261 263 235 231 228 251 254 251 243
74 189 84 170 201 95 92 185 192 195 191 180 178 175 176 182 184 161 163 174 180 212 265 264 201 275 260 239 228 250 245 240 242
129 146 143 106 93 199 146 152 193 187 179 175 171 173 177 177 174 148 175 192 206 205 262 262 276 270 265 253 240 228 249 240 238
95 96 91 158 167 182 185 175 172 173 178 169 175 178 169 164 157 184 140 202 199 255 269 241 222 219 272 262 253 240 232 231 229
105 173 173 171 179 181 175 170 167 169 177 177 179 169 169 159 178 185 194 202 220 247 237 210 205 211 213 214 225 253 243 231 225
Wind_Speed
18 17 16 18 16 14 16 17 15 14 18 16 20 19 20 21 22 21 21 25 21 16 21 20 21 16 58 61 58 21 35 57 25
20 18 19 19 20 20 19 21 21 21 22 22 25 23 22 21 36 23 36 22 28 14 21 58 19 21 27 30 45 30 67 37 25
23 19 20 19 20 20 20 24 23 23 27 25 26 26 27 29 29 27 29 30 32 33 53 20 53 25 41 60 25 40 28 59 70
37 26 24 24 24 24 25 32 28 28 33 28 27 30 31 33 44 24 27 19 35 55 50 53 42 53 52 41 44 47 50 42 64
44 42 25 42 41 36 28 25 39 27 37 31 33 27 24 48 28 27 39 42 56 33 52 52 55 59 39 43 47 68 69 42 48
47 43 28 23 38 26 39 31 32 45 41 33 42 38 32 39 34 19 33 48 45 48 46 36 37 40 40 42 45 42 20 51 42
28 36 29 29 32 33 44 46 40 32 45 37 41 50 49 53 55 48 50 49 49 32 42 46 55 50 55 54 27 23 50 65 69
48 48 52 43 35 37 35 52 49 22 53 43 49 29 14 49 54 53 55 54 41 47 51 52 55 59 60 53 60 65 70 73 75
51 49 55 32 36 32 53 50 55 51 53 45 48 53 52 53 54 43 44 46 50 52 58 61 61 60 59 61 69 72 76 75 61
55 50 50 51 48 54 37 56 54 55 55 53 48 51 51 52 45 50 51 54 55 60 60 58 57 58 62 69 74 74 43 45 49
27 51 51 40 60 51 38 52 56 53 53 51 42 43 48 45 52 54 56 55 62 60 57 58 60 62 72 72 59 45 44 44 45
56 51 50 48 52 40 51 51 52 53 41 28 47 48 48 54 56 56 62 59 60 60 60 59 67 75 61 56 41 49 39 54 55
50 49 50 49 49 50 42 51 29 49 31 50 50 50 57 58 52 64 58 63 59 56 60 64 73 76 54 53 52 38 50 37 39
50 45 50 50 38 45 51 37 47 50 47 41 56 59 52 50 55 57 61 56 58 63 67 72 76 54 51 51 47 36 46 35 38
49 46 50 49 43 48 48 45 39 56 55 60 58 50 48 56 57 59 59 58 61 70 72 75 49 50 53 44 38 37 35 35 35
34 34 41 44 33 39 47 51 58 60 61 49 51 56 57 58 61 61 57 59 64 48 73 51 50 47 49 48 47 37 36 34 33
26 47 46 46 47 55 56 50 49 47 48 50 54 60 61 61 62 56 60 66 68 73 52 46 52 40 40 45 46 37 36 34 32
46 49 50 54 57 49 56 54 46 47 51 56 60 61 62 63 63 56 66 69 72 73 46 43 40 37 36 37 40 43 36 35 33
51 53 54 55 54 52 50 51 53 54 56 61 62 62 60 58 59 68 58 70 70 49 39 43 49 48 36 34 36 38 39 37 35
58 57 58 59 55 54 54 57 60 61 61 64 63 62 62 60 69 70 70 72 61 43 40 49 50 51 50 48 44 36 37 37 37
Wind_Direction
238 239 241 243 263 286 270 270 283 294 289 283 266 284 286 285 285 292 298 290 297 314 306 308 309 297 282 282 283 307 301 275 305
247 248 248 249 254 263 270 272 274 270 270 270 269 284 287 296 287 293 289 292 286 314 302 285 319 318 304 302 285 292 275 296 303
252 260 257 267 278 288 290 272 276 278 284 280 281 279 279 281 282 284 284 284 283 283 283 308 279 310 285 276 301 293 275 278 273
270 255 256 261 268 269 270 285 275 279 284 275 286 279 282 283 283 294 292 307 285 287 290 285 285 284 280 288 289 281 280 286 277
271 275 262 280 282 279 272 288 286 282 289 281 279 291 295 286 288 297 290 290 290 298 287 286 281 281 292 287 284 282 282 289 280
274 274 265 268 278 274 281 275 282 285 286 285 285 280 290 283 291 329 301 293 297 294 292 297 298 293 292 285 282 282 303 287 293
258 269 263 263 271 273 287 286 286 287 285 279 285 289 287 290 289 293 293 294 295 303 300 296 290 292 287 282 288 290 293 288 286
272 275 279 276 272 282 276 286 286 297 288 280 295 287 294 294 291 294 294 295 305 304 301 298 293 287 293 294 293 292 288 289 292
275 277 277 267 272 271 283 288 284 286 290 280 292 291 293 293 292 300 309 307 305 301 301 299 297 298 298 297 295 295 298 295 299
273 278 283 281 287 286 277 285 291 289 291 294 295 294 294 293 303 302 306 296 305 296 298 302 302 298 299 299 304 302 314 310 307
263 278 283 277 282 283 282 286 287 294 294 296 299 309 298 313 304 303 300 302 301 301 301 304 303 300 308 309 314 319 316 316 309
276 278 283 286 281 279 290 290 291 291 304 313 297 300 307 299 301 299 304 300 303 306 307 301 307 313 320 322 323 312 322 301 304
277 279 282 284 286 288 279 293 325 290 314 293 300 306 298 299 300 303 303 303 307 308 306 310 314 316 320 319 311 326 309 318 317
278 278 284 287 296 291 290 303 297 295 296 312 300 295 298 299 300 303 302 301 310 308 313 314 317 319 313 321 316 329 312 320 317
279 279 283 284 290 290 289 296 309 287 291 290 295 295 294 299 302 304 306 307 309 313 315 318 318 315 307 323 327 325 330 329 322
276 294 276 278 311 308 296 291 287 288 289 297 294 294 297 301 302 304 305 309 310 310 318 320 319 318 316 317 319 325 331 336 334
305 282 282 287 286 283 285 292 296 297 296 294 294 296 300 301 304 305 309 310 312 318 322 322 314 323 317 315 318 324 325 327 336
284 280 283 284 282 291 288 290 295 296 293 291 294 298 300 304 307 299 310 313 317 318 320 325 332 328 323 319 318 318 323 326 330
280 281 280 282 286 288 292 291 290 291 291 293 295 298 303 306 305 309 304 314 316 319 324 318 320 322 330 324 323 320 319 322 324
280 276 279 281 285 287 287 288 290 290 291 292 297 300 301 305 306 307 311 315 317 320 316 315 318 320 322 323 323 324 321 319 319